Regional Weather Roundup
Issued by NWS

Home | Current Version | Previous Version | Text Only | Print | Product List | Glossary On
Versions: 1 2 3 4 5 6 7 8 9 10 11 12 13 14 15 16 17 18 19 20 21 22 23 24 25 26 27 28 29 30 31 32 33 34 35 36 37 38 39 40 41 42 43 44 45 46 47 48 49 50
000
ASUS43 KMKX 202121
RWRWI

WISCONSIN REGIONAL WEATHER ROUNDUP
NATIONAL WEATHER SERVICE MILWAUKEE/SULLIVAN WI
400 PM CDT MON APR 20 2015

NOTE: "FAIR" INDICATES FEW OR NO CLOUDS BELOW 12,000 FEET WITH NO
SIGNIFICANT WEATHER AND/OR OBSTRUCTIONS TO VISIBILITY.

WIZ001-002-006>008-014>016-023>028-202200-
NORTHWEST WISCONSIN

CITY           SKY/WX    TMP DP  RH WIND       PRES   REMARKS
SUPERIOR ARPT  CLOUDY    38  29  69 NW18G26   29.40F WCI  29
ASHLAND        CLOUDY    40  29  64 W16G29    29.35R WCI  31
HAYWARD        CLOUDY    39  27  62 W9G21     29.38S WCI  33
SIREN          CLOUDY    39  27  62 NW16G25   29.44S WCI  30
CUMBERLAND     CLOUDY    37  27  65 W26       29.42S WCI  26
RICE LAKE      CLOUDY    40  29  64 W12G21    29.44S WCI  33
CHETEK         CLOUDY    40  29  66 W10G21    29.43S WCI  33
LADYSMITH      CLOUDY    39  31  73 W17       29.41S WCI  30
EAU CLAIRE     CLOUDY    40  28  62 W16G26    29.45S WCI  31
MENOMONIE      CLOUDY    41  29  62 W17       29.47S
NEW RICHMOND   CLOUDY    40  26  56 NW18G29   29.47S WCI  31
OSCEOLA        CLOUDY    40  27  58 W18G28    29.50S WCI  31
$$

WIZ003>005-009-010-017-018-202200-
NORTH CENTRAL WISCONSIN

CITY           SKY/WX    TMP DP  RH WIND       PRES   REMARKS
MANITOWISH WTR CLOUDY    35  32  88 W15G23    29.31R WCI  25
ARBOR VITAE    CLOUDY    37  33  87 W13G18    29.31R WCI  28
WOODRUFF       CLOUDY    37  33  87 W13G18    29.31R WCI  28
RHINELANDER    CLOUDY    38  34  85 W15G24    29.31R WCI  29
EAGLE RIVER    LGT SNOW  34  32  94 NW13G21   29.29R WCI  25
LAND O LAKES   LGT SNOW  36  34  94 NW12G17   29.29R WCI  27
PHILLIPS       CLOUDY    35  30  81 W8G16     29.35R WCI  29
TOMAHAWK       LGT RAIN  37  33  87 W12G26    29.34R WCI  29
MEDFORD        CLOUDY    37  32  81 W17       29.37S WCI  27
MERRILL        CLOUDY    40  35  82 W20G29    29.34R WCI  30
$$

WIZ029-030-035-036-043>047-202200-
CENTRAL WISCONSIN

CITY           SKY/WX    TMP DP  RH WIND       PRES   REMARKS
WAUSAU         CLOUDY    39  33  79 W20G30    29.35R WCI  29
MOSINEE        CLOUDY    37  34  87 W15G25    29.38R WCI  28
MARSHFIELD     CLOUDY    39  31  72 NW21G28   29.40R WCI  29
STEVENS POINT  CLOUDY    37  32  79 W14G25    29.39R WCI  29
WAUPACA        CLOUDY    44  37  76 W15G26    29.39R
WAUTOMA        CLOUDY    42  36  79 W20G32    29.42R
WISC RAPIDS    CLOUDY    41  32  70 NW16G28   29.42R
CAMP DOUGLAS   CLOUDY    41  36  81 W18G28    29.45R
$$

WIZ011>013-019>022-031-037>040-048>050-202200-
NORTHEAST WISCONSIN

CITY           SKY/WX    TMP DP  RH WIND       PRES   REMARKS
ANTIGO         LGT RAIN  37  36  93 W17G23    29.31R WCI  28
SHAWANO        CLOUDY    43  37  80 W8G16     29.34R
OCONTO         CLOUDY    40  37  91 W17G28    29.31R WCI  31
STURGEON BAY   CLOUDY    37  34  87 W18G25    29.33R WCI  27
GREEN BAY      LGT RAIN  44  38  79 W21G28    29.34R
MANITOWOC      CLOUDY    45  39  79 W21G35    29.34R
APPLETON       DRIZZLE   43  39  87 W23       29.36R
CLINTONVILLE   DRIZZLE   41  36  81 W15G24    29.35R
OSHKOSH        CLOUDY    44  37  76 W25G33    29.38R
$$

WIZ032>034-041-042-053>061-202200-
SOUTHWEST WISCONSIN

CITY           SKY/WX    TMP DP  RH WIND       PRES   REMARKS
LA CROSSE      CLOUDY    44  31  60 W16G23    29.51R
SPARTA         CLOUDY    41  30  64 W16       29.49R
VIROQUA        CLOUDY    39  32  75 W15G23    29.49S WCI  31
BOSCOBEL       CLOUDY    45  30  55 W20G26    29.53R
PRAIRIE DU CHI PTSUNNY   45  30  56 W26       29.54S
PLATTEVILLE    CLOUDY    44  33  65 W18G33    29.54R
$$

WIZ056-057-062-063-064-067-068-202200-
SOUTH CENTRAL WISCONSIN

CITY           SKY/WX    TMP DP  RH WIND       PRES   REMARKS
REEDSBURG      CLOUDY    40  32  71 W13G26    29.47R WCI  33
BARABOO/DELLS  CLOUDY    40  31  69 W17G24    29.46R WCI  32
LONE ROCK      CLOUDY    44  31  60 W20G29    29.50R
MINERAL POINT  CLOUDY    43  32  65 W20G32    29.50S
MADISON        CLOUDY    42  31  64 W12G28    29.47R
MIDDLETON      CLOUDY    44  32  62 W21G26    29.48R
WATERTOWN      CLOUDY    42  35  75 W15G24    29.45R
MONROE         CLOUDY    43  32  65 W25G37    29.50R
JANESVILLE     CLOUDY    45  34  65 W21G33    29.48R
$$

WIZ051-052-058>065-066-070>072-202200-
SOUTHEAST WISCONSIN

CITY           SKY/WX    TMP DP  RH WIND       PRES   REMARKS
MILWAUKEE      CLOUDY    46  36  68 W17G28    29.44R
WAUKESHA       CLOUDY    41  36  81 W17G25    29.45R
MILWAUKEE/TIMM CLOUDY    45  36  70 W21G32    29.43R
RACINE         LGT RAIN  46  37  71 W15G24    29.46R
BURLINGTON     CLOUDY    42  35  78 W17G28    29.47R
KENOSHA        CLOUDY    45  37  73 W17G30    29.46R
FOND DU LAC    LGT RAIN  43  36  76 W21G31    29.39R
SHEBOYGAN      LGT RAIN  43  38  82 W15       29.37R
WEST BEND      LGT RAIN  41  36  81 W17G26    29.41R
JUNEAU         CLOUDY    41  35  78 W17G23    29.44R
$$

LSZ147-162-202200-
LAKE SUPERIOR

STATION/POSITION TIME  TEMP    WIND        PRES    WAVE
                       AIR SEA DIR/SP/G            HT/PER
                 (UTC) (F)     (DEG/KT/KT) (MB)    (FT/S)
DEVILS ISLAND    2100   36     270/ 23/ 27  993.2F
PORT WING        2040   37     270/ 19/ 23  995.3R
SAXON HARBOR     2000   40     290/ 10/ 19  993.2S
$$

LMZ867-665-643>646-202200-
LAKE MICHIGAN

STATION/POSITION TIME  TEMP    WIND        PRES    WAVE
                       AIR SEA DIR/SP/G            HT/PER
                 (UTC) (F)     (DEG/KT/KT) (MB)    (FT/S)
CHAMBERS ISLAND  2000   40     240/  6/ 11  991.2R
NORTHPORT PIER   2000   40     290/  7/ 16  990.2R
SISTER BAY       2002   39     300/ 19/ 21   N/A
KEWAUNEE LAKESHO 2000   42     280/ 18/ 27  991.1R
SHEBOYGAN LAKESH 2100   44     280/ 17/ 21  995.0R
PORT WASHINGTON  2100   46     260/ 15/ 26  996.3
MILWAUKEE LAKESH 2100   45     260/ 20/ 25   N/A
KENOSHA   LAKESH 2100   45     260/ 17/ 33  998.3R
$$

TC  - TEMPERATURE IN CELSIUS
VSB - VISIBILITY IN STATUTE MILES
WCI - WIND CHILL INDEX
HX  - HEAT INDEX



USA.gov is the U.S. government's official web portal to all federal, state and local government web resources and services.